Kuiper-00248

operational
NORAD ID: 67153 Int'l Des: 2025-301 Owner: KUIP Country: US Constellation: kuiper
LEOCIRCULAR

关于 Kuiper-00248

正在加载描述...

实时位置

正在加载3D地球...

即将过境

高度历史

Altitude vs Time

uPlot chart will show altitude changes over time

两行轨道根数

1 67153C 25301W 25350.84028935 .00013749 00000+0 40330-3 0 3504
2 67153 51.8670 105.3526 0008826 114.9288 75.5976 15.34527702 16
Epoch: Dec 16, 2025 • Age: 78 hours

当前状态

高度 457.3 km
速度 7.64 km/s
星下点 21.70°N, 80.15°E
发射日期 Dec 16, 2025
运行时间 3 days
类型 internet

技术详情

分类 Payload
质量 490.00 kg
干质量 490.00 kg
总质量 490.00 kg
长度 1.80 m
直径 0.70 m
跨度 5.00 m
形状 Box + 2 pan
制造商 KUIP
平台类型 Kuiper
阶段状态 In Orbit
所有者/国家 KUIP/US

大型星座

Loading constellations...